{"data":{"norad_id":67445,"epoch":"2026-09-19T12:36:31.626720Z","epoch_age_seconds":159460,"freshness":"FRESH","line1":"1 67445U 26008A   26262.52536605  .00014155  00000+0  52277-3 0  9993","line2":"2 67445  43.0015 190.8331 0001056 289.7656  70.3081 15.27588273 39213","mean_motion":15.27588273,"eccentricity":0.0001056,"inclination_deg":43.0015,"raan_deg":190.8331,"arg_perigee_deg":289.7656,"mean_anomaly_deg":70.3081,"bstar":0.00052277,"rev_number":3921,"period_min":94.266238190741,"perigee_km":482.29978517746,"apogee_km":483.74886244905,"semimajor_km":6861.1613238133,"source":"CELESTRAK","updated_at":"2026-09-20T09:00:43.526118Z"}}